Location: Emory University Observatory
(33.7903°N, 84.3267°W)
Time: 07:07:48
(UTC-04:00)

Tiangong 2 - Pass Details

Date: 15 October 2017
Orbit: 388 x 392 km, 42.8° (Epoch: 19 October)

Event Time Altitude Azimuth Distance (km) Brightness Sun altitude
Exits shadow 07:08:08 - 313° (NW) 1,725 3.9 -7.9°
Reaches altitude 10° 07:09:04 10° 322° (NW) 1,420 3.5 -7.7°
Maximum altitude 07:11:33 20° 12° (NNE) 960 3.2 -7.2°
Drops below altitude 10° 07:14:02 10° 63° (ENE) 1,419 4.9 -6.7°
Sets 07:16:27 0° 81° (E) 2,274 6.8 -6.2°
